Regional Weather Roundup
Issued by NWS Cleveland, OH

Home | Current Version | Previous Version | Text Only | Print | Product List | Glossary Off
Versions: 1 2 3 4 5 6 7 8 9 10 11 12 13 14 15 16 17 18 19 20 21 22 23 24 25 26 27 28 29 30 31 32 33 34 35 36 37 38 39 40 41 42 43 44 45 46 47 48 49 50

000
ASUS41 KCLE 020910
RWRCLE
OHIO REGIONAL WEATHER ROUNDUP
NATIONAL WEATHER SERVICE WILMINGTON, OH
500 AM EDT TUE JUN 02 2015

NOTE: "FAIR" INDICATES FEW OR NO CLOUDS BELOW 12,000 FEET WITH NO
SIGNIFICANT WEATHER AND/OR OBSTRUCTIONS TO VISIBILITY.

OHZ001>008-015>018-024>027-034-035-043-044-021000-
   NORTHWEST OHIO

CITY           SKY/WX    TMP DP  RH WIND       PRES   REMARKS
DEFIANCE       CLEAR     47  44  90 N3        30.18R
FINDLAY        CLEAR     49  46  90 N7        30.14S
TOLEDO EXPRESS CLEAR     46  41  82 N3        30.17R
TOLEDO EXEC    CLEAR     50  42  74 N6        30.17S
LIMA           PTCLDY    47  46  97 N3        30.14F FOG
$$

OHZ009>014-019>023-028>033-038-089-021000-
   NORTHEAST OHIO

CITY           SKY/WX    TMP DP  RH WIND       PRES   REMARKS
CLE-HOPKINS    CLOUDY    53  49  86 NE9       30.16F
CLE-LAKEFRONT  CLOUDY    53  49  86 NE7       30.14F
CUY CO. ARPT   NOT AVBL
LORAIN-ELYRIA  CLOUDY    50  47  89 NE9       30.15F
ASHTABULA      CLOUDY    51  49  92 VRB6      30.16S
AKRON-CANTON   CLOUDY    52  47  83 NE7       30.12F
WOOSTER        CLOUDY    51  47  86 NE8       30.13F
MANSFIELD      CLOUDY    50  48  93 NE8       30.13S
YOUNGSTOWN     CLOUDY    50  48  93 N8        30.12F
$$

OHZ042-051>053-060>062-070>072-077>081-021000-
  SOUTHWEST OHIO

CITY           SKY/WX    TMP DP  RH WIND       PRES   REMARKS
CINC-COVINGTON CLOUDY    54  48  80 NE9       30.11S
CINC-LUNKEN    CLOUDY    54  49  83 NE7       30.13S
HAMILTON       CLOUDY    53  49  86 N5        30.13F
DAYTON         CLOUDY    49  47  93 N6        30.14S
WRIGHT-PAT AFB CLOUDY    51  48  90 N9        30.13S
DAYTON GENERAL CLOUDY    50  48  93 NE5       30.12S
WILMINGTON     CLOUDY    51  47  86 NE7       30.11F
$$

OHZ036-037-039>041-045>050-054>059-063>069-073>076-082>088-021000-
  CENTRAL AND SOUTHEAST OHIO

CITY           SKY/WX    TMP DP  RH WIND       PRES   REMARKS
COLUMBUS       CLOUDY    52  47  83 NE9       30.11F
OSU AIRPORT    CLOUDY    52  48  86 N3        30.12S
BOLTON FIELD   NOT AVBL
RICKENBACK AFB CLOUDY    52  47  84 NE6       30.11S
NEWARK         CLOUDY    53  48  83 VRB5      30.11F
MARION         CLOUDY    51  48  89 NE7       30.14R
LANCASTER      CLOUDY    53  48  83 NE7       30.11F
ZANESVILLE     CLOUDY    52  47  83 N5        30.10F
NEW PHILLY     CLOUDY    54  48  80 NE7       30.11F
$$


USA.gov is the U.S. government's official web portal to all federal, state and local government web resources and services.